Regional Weather Roundup
Issued by NWS

Home | Current Version | Previous Version | Text Only | Print | Product List | Glossary Off
Versions: 1 2 3 4 5 6 7 8 9 10 11 12 13 14 15 16 17 18 19 20 21 22 23 24 25 26 27 28 29 30 31 32 33 34 35 36 37 38 39 40 41 42 43 44 45 46 47 48 49 50

000
ASUS43 KDTX 291510
RWRMI
MICHIGAN HOURLY REGIONAL WEATHER ROUNDUP
NATIONAL WEATHER SERVICE DETROIT/PONTIAC MI
1100 AM EDT SUN MAR 29 2015

NOTE: "FAIR" INDICATES FEW OR NO CLOUDS BELOW 12,000 FEET WITH NO
SIGNIFICANT WEATHER AND/OR OBSTRUCTION TO VISIBILITY.

MIZ047>049-052>055-059>063-066>070-074>076-081>083-291600-
SOUTHEAST LOWER MICHIGAN

CITY           SKY/WX    TMP DP  RH WIND       PRES   REMARKS
ADRIAN         SUNNY     34  18  52 SW21      30.22F
ALMA           MOSUNNY   36  17  46 S14G23    30.11F
ANN ARBOR      SUNNY     35  18  49 S14G23    30.21F
BAD AXE        SUNNY     35  16  46 S16G22    30.12F
DETROIT CITY   SUNNY     37  14  38 S20G25    30.23F
DETROIT        MOSUNNY   37  16  42 S21G26    30.24F
FLINT          SUNNY     37  13  37 S16       30.16F
GROSSE ILE     SUNNY     34  21  60 S18       30.23F
HILLSDALE      SUNNY     35  16  46 S15G22    30.17F
HOWELL         SUNNY     36  14  41 S17       30.16F

CITY           SKY/WX    TMP DP  RH WIND       PRES   REMARKS
JACKSON        SUNNY     37  16  42 S17       30.17F
LAMBERTVILLE   SUNNY     36  18  48 S15       30.24F
LANSING        SUNNY     37  16  42 SW18G24   30.15F
LAPEER         NOT AVBL
MASON          SUNNY     35  16  45 S12G23    30.16F
MONROE         SUNNY     36  16  44 SW13G22   30.23F
MT. CLEMENS    MOSUNNY   37  15  41 SW18      30.19F
PONTIAC        PTSUNNY   34  12  40 S14G24    30.17F
PORT HOPE        N/A     36  14  40 SW13G23   30.09F
PORT HURON     SUNNY     34  16  47 SW13G25   30.21F
TRI CITIES     SUNNY     37  15  40 S17G26    30.11F
YPSILANTI      SUNNY     38  18  44 S18       30.22F
$$
MIZ043>046-050>051-056>058-064>065-071>073-077>080-291600-
SOUTHWEST LOWER MICHIGAN

CITY           SKY/WX    TMP DP  RH WIND       PRES   REMARKS
BATTLE CREEK   MOSUNNY   37  16  42 SW20G29   30.14F
BENTON HARBOR  SUNNY     36  17  46 S14G29    30.10F
BIG RAPIDS     PTSUNNY   34  15  46 S13G22    30.02F
COLDWATER      PTSUNNY   36  15  42 S14G21    30.17F
HOLLAND        MOSUNNY   37  16  42 S16G30    30.08F
GRAND RAPIDS   PTSUNNY   36  16  44 S18       30.10F
KALAMAZOO      PTSUNNY   37  16  42 S18       30.14F
MARSHALL       MOSUNNY   35  15  45 S16       30.16F
MUSKEGON       PTSUNNY   34  18  52 S22G33    30.06F
$$
MIZ016>042-291600-
NORTHERN LOWER MICHIGAN

CITY           SKY/WX    TMP DP  RH WIND       PRES   REMARKS
ALPENA         SUNNY     37   7  28 S20       30.00F
BEAVER ISLAND  CLOUDY    33  22  62 SW21G35   29.85F
BELLAIRE       MOSUNNY   37  13  36 S13G23    29.92F
CADILLAC       MOSUNNY   35  13  41 S20G25    29.94F
CHARLEVOIX     PTSUNNY   37  17  45 SW18G33   29.91F
FRANKFORT      CLOUDY    39  19  44 S21G29    29.92F
GAYLORD        SUNNY     32  10  40 SW18G28   29.91F
GRAYLING       SUNNY     35  10  34 SW17G28   29.97F
HARBOR SPRINGS MOSUNNY   35  14  41 SW15G24   29.90F
HOUGHTON LAKE  SUNNY     34  11  38 SW18G30   30.01F
MANISTEE       CLOUDY    36  21  55 S15G22    29.96F
OSCODA         SUNNY     36  14  39 SW23G31   30.05F
PELLSTON       MOSUNNY   36  12  37 S15G25    29.90F
TRAVERSE CITY  PTSUNNY   37  16  42 SW15G25   29.91F
$$
MIZ007>008-015-291600-
EASTERN UPPER MICHIGAN

CITY           SKY/WX    TMP DP  RH WIND       PRES   REMARKS
KINROSS        PTSUNNY   34  16  47 S13G24    29.86F
MACKINAC ISLAN PTSUNNY   34  14  44 S18G28    29.88F
NEWBERRY       CLOUDY    30  25  81 S23G36    29.79F
S. S. MARIE    PTSUNNY   34  17  50 S9G21     29.85F
$$
MIZ004>006-011>014-085-291600-
CENTRAL UPPER MICHIGAN

CITY           SKY/WX    TMP DP  RH WIND       PRES   REMARKS
MANISTIQUE     CLOUDY    35  28  74 S26G35    29.80F
ESCANABA       PTSUNNY   36  19  51 S23G35    29.75F
MENOMINEE      CLOUDY    36  18  48 S17G26    29.76F
SAWYER-GWINN   MOSUNNY   32  19  59 SW26G33   29.65F
$$
MIZ001>003-009>011-084-291600-
WESTERN UPPER MICHIGAN

CITY           SKY/WX    TMP DP  RH WIND       PRES   REMARKS
IRON MOUNTAIN  LGT RAIN  32  20  61 S16G33    29.66F
HOUGHTON       LGT SNOW  33  27  78 SW14      29.53S
COPPER HARBOR    N/A     35  23  61 SW16G29   29.53F
IRONWOOD       CLOUDY    34  28  80 S21G26    29.49F
$$

ABBREVIATIONS USED IN REMARKS
   TC - TEMPERATURE IN CELSIUS
  WCI - WIND CHILL INDEX
   HX - HEAT INDEX
  VSB - VISIBILITY




USA.gov is the U.S. government's official web portal to all federal, state and local government web resources and services.